Showing default

GOES 14, 35491

Orbit data source: Space-Track

GOES 14, 35491 is a payload satellite owned by NOAA (US) in GEO that was launched on Sat, 27 Jun 2009 UTC via a DELTA 4M+(4,2) launch vehicle from the Air Force Eastern Test Range (AFETR). Payload-class satellites include a variety of spacecraft equipped with specific instruments for various scientific and technological missions. These include communications satellites like Starlink; space stations such as the ISS; scientific satellites like the Hubble; Earth observation satellites from companies like Planet Labs, Umbra, and HawkEye 360; GPS; miniature CubeSats for education and research; and military/defense satellites.

Not visible in the next 10 days
Identifier
35491, 2009-033A
Orbit
GEO
Country
Flag of USUS
Related business
Manufacturer
Boeing/ES
Mission
On reserve Civil Weather
Bus & Motor
HS-601, R-4D?
Mass
3,209 kg wet, 1,543 kg dry
Launch date (UTC)
2009-06-27 (17 years ago)
Launch vehicle
DELTA 4M+(4,2)
Launch site
Air Force Eastern Test Range (AFETR)
Object type
Payload
Rocket body
Debris
Shape & HBR
Box + 1 Pan + 1 Ant, 15.0 m
Radar Cross Section
14.281 m², Large (>1 m²)

Expand to show TLE details & history
Last TLE update: 14 hours ago

TLE from 14 hours ago
0 GOES 14
1 35491U 09033A   26093.78481580  .00000050  00000-0  00000-0 0  9993
2 35491   1.4983  83.9451 0001815 294.5129 279.8257  1.00111414  5846
Epoch: 2026-04-03T18:50Z
TLE epoch observation values (Epoch: 2026-04-03T18:50:08.085Z)
Latitude
-0.81996°
Longitude
-176.38513°
Altitude
35,829.896 km
Speed
3.073 km/s
True Right ascension
19h 53m 03s
True Declination
0° 49' 09"
Sunlit
Object was in daylight at epoch
Visualization orbit readout
Latitude
Unknown
Longitude
Unknown
Altitude
Unknown
Speed
Unknown
Apparent Right ascension
Unknown
Apparent Declination
Unknown
Sunlit
N/A
Visualization observer readout
Local Sidereal Time
14:41:22
Azimuth
Unknown
Elevation
Unknown
Doppler factor
Unknown
Orbital elements
Apogee altitude
35,840.342 km
Perigee altitude
35,825.02 km
Semi-major axis
42,210.818 km
Eccentricity
0.00018
Inclination
1.4983°
RAAN
83.9451°
Arg. of periapsis
294.5129°
True anomaly
279.80521°
Mean anomaly
279.8257°
Eccentric anomaly
279.81545°
Mean motion
0.25027 °/min
Orbital period
1,438.45 mins
BSTAR
0
Loading maneuver chart data...
Computing Atmospheric mass density...
Loading historical data...
Loading historical data...
Loading historical data...
Loading historical data...
Loading historical data...
Loading historical data...
Loading historical data...
Other satellites on launch #33 in the year 2009 (2009-06-27 UTC)

Documentation

Showing up to 5 results
|